STARLINK-36976, 68066

Orbit data source: Space-Track

STARLINK-36976, 68066 is a payload satellite owned by SpaceX/Seattle (US) in LEO that was launched on Mon, 02 Mar 2026 UTC via an FALCON 9 launch vehicle from the Air Force Eastern Test Range (AFETR). Payload-class satellites include a variety of spacecraft equipped with specific instruments for various scientific and technological missions. These include communications satellites like Starlink; space stations such as the ISS; scientific satellites like the Hubble; Earth observation satellites from companies like Planet Labs, Umbra, and HawkEye 360; GPS; miniature CubeSats for education and research; and military/defense satellites.

Loading next visibility...
Identifier
68066, 2026-041AC
Orbit
LEO
Country
Flag of USUS
Related business
Manufacturer
SpaceX/Seattle
Mission
Operational Commercial Communications
Bus & Motor
STARLINK V2MO, Unknown motor
Mass
575 kg wet, ~530 kg dry
Launch date (UTC)
2026-03-02 (4 months ago)
Launch vehicle
FALCON 9
Launch site
Air Force Eastern Test Range (AFETR)
Object type
Payload
Rocket body
Debris
Shape & HBR
Box + 2 Pan, 17.7 m
Radar Cross Section
36.964 m², Large (>1 m²)

Expand to show TLE details & history
Last TLE update: 1 day ago

TLE from 1 day ago
0 STARLINK-36976
1 68066U 26041AC  26170.62481374  .00020409  00000-0  61337-3 0  9998
2 68066  53.1589 293.6561 0001088  85.6864 274.4263 15.34407178 17034
Epoch: 2026-06-19T14:59Z
TLE epoch observation values (Epoch: 2026-06-19T14:59:43.907Z)
Latitude
Longitude
160.87205°
Altitude
463.526 km
Speed
7.636 km/s
True Right ascension
19h 34m 37s
True Declination
0° 00' 00"
Sunlit
Object was in full shadow at epoch
Visualization orbit readout
Latitude
Unknown
Longitude
Unknown
Altitude
Unknown
Speed
Unknown
Apparent Right ascension
Unknown
Apparent Declination
Unknown
Sunlit
N/A
Visualization observer readout
Local Sidereal Time
07:21:01
Azimuth
Unknown
Elevation
Unknown
Doppler factor
Unknown
Orbital elements
Apogee altitude
463.683 km
Perigee altitude
462.195 km
Semi-major axis
6,841.076 km
Eccentricity
0.00011
Inclination
53.1589°
RAAN
293.6561°
Arg. of periapsis
85.6864°
True anomaly
274.41387°
Mean anomaly
274.4263°
Eccentric anomaly
274.42008°
Mean motion
3.83581 °/min
Orbital period
93.85 mins
BSTAR
0.00061337
Loading maneuver chart data...
Computing Atmospheric mass density...
Loading historical data...
Loading historical data...
Loading historical data...
Loading historical data...
Loading historical data...
Loading historical data...
Loading historical data...

Documentation

Showing up to 5 results
|